This demonstration page uses our WeatherBlox Daily Observations layout. Learn more.

Left ArrowRight Arrow

40.92501, -98.34201

Hourly Observations for August 16, 2022

Temp ( °F °C ) Dew Point ( °F °C ) Humidity (%) Winds ( mph kmh ) Pressure ( in mb ) Visibility ( mi km ) Precip ( " mm )
12:53 am 00:53 Cloudy 64 17.8 60 15.6 87 87 E 9 15 30.04 1017 10 16 0.00 0.00
1:09 am 01:09 Cloudy 64 17.8 60 15.6 87 87 E 8 13 30.01 1016 10 16 0.00 0.00
1:53 am 01:53 Cloudy 64 17.8 60 15.6 87 87 E 8 13 30.02 1017 10 16 0.00 0.00
2:53 am 02:53 Cloudy 64 17.8 61 16.1 90 90 ENE 7 11 30.02 1017 10 16 0.00 0.00
3:53 am 03:53 Cloudy 64 17.8 61 16.1 90 90 NE 7 11 30.04 1017 10 16 0.00 0.00
4:32 am 04:32 Cloudy with Mist and Fog 63 17.2 60 15.6 90 90 ENE 10 17 30.02 1017 3 4 0.01 0.13
4:53 am 04:53 Cloudy with Mist and Fog 62 16.7 60 15.6 93 93 NE 8 13 30.05 1018 3 5 0.01 0.13
5:32 am 05:32 Cloudy with Mist and Fog 62 16.7 60 15.6 93 93 ENE 9 15 30.02 1017 3 4 0.01 0.25
5:44 am 05:44 Cloudy with Mist and Fog 62 16.7 60 15.6 93 93 NE 12 19 30.02 1017 3 5 0.01 0.25
5:53 am 05:53 Cloudy with Mist and Fog 62 16.7 59 15 90 90 NE 13 20 30.05 1018 3 5 0.01 0.25
6:27 am 06:27 Cloudy with Mist and Fog 61 16.1 59 15 93 93 ENE 16 26 30.03 1017 4 6 0.00 0.00
6:53 am 06:53 Cloudy with Mist and Fog 61 16.1 58 14.4 90 90 ENE 14 22 30.06 1018 3 5 0.00 0.00
7:05 am 07:05 Cloudy with Mist and Fog 61 16.1 58 14.4 90 90 ENE 8 13 30.06 1018 2 3 0.00 0.00
7:32 am 07:32 Cloudy with Mist and Fog 61 16.1 59 15 93 93 E 12 19 30.08 1018 2 2 0.00 0.00
7:53 am 07:53 Cloudy with Mist and Fog 61 16.1 59 15 93 93 E 8 13 30.11 1020 2 2 0.00 0.00
8:53 am 08:53 Cloudy with Mist and Fog 61 16.1 59 15 93 93 E 8 13 30.12 1020 2 2 0.00 0.00
9:31 am 09:31 Cloudy with Mist and Fog 61 16.1 60 15.6 97 97 E 8 13 30.09 1019 2 3 0.00 0.00
9:46 am 09:46 Cloudy with Mist and Fog 62 16.7 60 15.6 93 93 ENE 8 13 30.08 1019 3 5 0.00 0.00
9:53 am 09:53 Cloudy with Mist and Fog 62 16.7 60 15.6 93 93 E 7 11 30.11 1020 4 6 0.00 0.00
10:53 am 10:53 Cloudy 63 17.2 61 16.1 93 93 E 10 17 30.11 1020 8 13 0.00 0.00
11:28 am 11:28 Cloudy with Mist and Fog 64 17.8 61 16.1 90 90 ENE 12 19 30.08 1018 2 3 0.00 0.00
11:42 am 11:42 Cloudy with Mist and Fog 64 17.8 62 16.7 93 93 ENE 14 22 30.06 1018 3 5 0.00 0.00
11:53 am 11:53 Cloudy with Mist and Fog 65 18.3 62 16.7 90 90 ENE 14 22 30.11 1020 4 6 0.00 0.00
12:53 pm 12:53 Cloudy 65 18.3 61 16.1 87 87 ENE 13 20 30.11 1020 10 16 0.00 0.00
1:21 pm 13:21 Cloudy with Mist and Fog 64 17.8 61 16.1 90 90 NE 12 19 30.08 1019 2 3 0.00 0.00
1:39 pm 13:39 Cloudy with Light Rain 64 17.8 62 16.7 93 93 NE 12 19 30.08 1019 2 2 0.01 0.13
1:53 pm 13:53 Cloudy with Mist and Fog 64 17.8 62 16.7 93 93 ENE 8 13 30.12 1020 2 2 0.01 0.13
2:53 pm 14:53 Cloudy with Mist and Fog 65 18.3 62 16.7 90 90 ENE 9 15 30.13 1020 1 2 0.02 0.51
3:51 pm 15:51 Cloudy with Mist and Fog 64 18 63 17 94 94 ENE 10 17 30.09 1019 2 3 0.00 0.00
3:53 pm 15:53 Cloudy with Mist and Fog 65 18.3 63 17.2 93 93 ENE 8 13 30.13 1020 2 3 0.00 0.00
4:15 pm 16:15 Cloudy with Mist and Fog 66 18.9 63 17.2 90 90 ENE 8 13 30.09 1019 3 5 0.00 0.00
4:17 pm 16:17 Cloudy with Mist and Fog 66 18.9 63 17.2 90 90 ENE 8 13 30.09 1019 3 4 0.00 0.00
4:42 pm 16:42 Cloudy with Mist and Fog 66 18.9 64 17.8 93 93 E 6 9 30.09 1019 4 6 0.00 0.00
4:53 pm 16:53 Cloudy 67 19.4 63 17.2 87 87 E 8 13 30.13 1020 9 14 0.00 0.00
5:35 pm 17:35 Cloudy 67 19.4 63 17.2 87 87 E 7 11 30.08 1019 10 16 0.00 0.00
5:53 pm 17:53 Cloudy 67 19.4 63 17.2 87 87 ENE 6 9 30.13 1020 10 16 0.00 0.00
6:02 pm 18:02 Cloudy 67 19.4 63 17.2 87 87 ENE 7 11 30.08 1019 10 16 0.00 0.00
6:35 pm 18:35 Cloudy 68 20 63 17.2 84 84 E 7 11 30.08 1019 10 16 0.00 0.00
6:53 pm 18:53 Cloudy 67 19.4 63 17.2 87 87 E 8 13 30.13 1020 10 16 0.00 0.00
7:53 pm 19:53 Cloudy 67 19.4 63 17.2 87 87 NE 3 6 30.12 1020 10 16 0.00 0.00
8:53 pm 20:53 Cloudy 67 19.4 63 17.2 87 87 NNE 3 6 30.13 1020 10 16 0.00 0.00
9:53 pm 21:53 Cloudy 66 18.9 64 17.8 93 93 NNE 3 6 30.15 1021 8 13 0.00 0.00
10:53 pm 22:53 Cloudy with Mist and Fog 66 18.9 63 17.2 90 90 NNE 3 6 30.15 1021 6 10 0.00 0.00
11:53 pm 23:53 Cloudy with Mist and Fog 65 18.3 63 17.2 93 93 N 5 7 30.16 1021 6 10 0.00 0.00

Powered by AerisWeather